[[{"header":{"parameterUnit":"m.s-1","parameterCategory":1,"la1":30.2991,"la2":30.254,"lo1":-89.0895,"lo2":-89.0444,"dy":0.0017,"dx":0.0017,"nx":28,"ny":28,"refTime":"2024-04-16T03:00:00:Z","depth":0,"parameterNumber":2,"parameterNumberName":"U-component_of_WINDS"},"data":[0,0,0,0,0,0,0,0,0,0,0,0,0,0,0,0,0,0,0,0,0,0,0,0,0,0,0,0,0,0,0,0,0,0,0,0,0,0,0,0,0,0,0,0,0,0,0,0,0,0,0,0,0,0,0,0,0,0,-3.8966,-3.8968,0,-3.9083,-3.9084,-3.9086,-3.9102,-3.9101,-3.91,-3.9099,-3.9218,-3.9222,-3.9226,0,0,0,0,0,0,0,0,0,0,0,0,0,-3.8758,-3.8762,-3.8966,-3.8968,-3.8969,-3.9083,-3.9084,-3.9086,-3.9103,-3.9101,-3.91,-3.9099,-3.9216,-3.9221,-3.9226,0,0,0,0,0,0,0,0,0,0,0,0,0,-3.8859,-3.8763,-3.8966,-3.8991,-3.8995,-3.9082,-3.9084,-3.9086,-3.9103,-3.9101,-3.91,-3.9098,-3.9215,-3.9221,-3.9227,-3.9297,0,0,-3.9246,-3.9248,0,0,0,0,0,0,0,0,-3.8853,-3.8867,-3.8986,-3.899,-3.8994,-3.9077,-3.9054,-3.9157,-3.9103,-3.9062,-3.9099,-3.9097,-3.9172,-3.9182,-3.9207,-3.9303,-3.9308,-3.9246,-3.925,-3.9253,-3.9255,0,0,0,0,0,0,0,-3.8846,-3.8862,-3.9012,-3.8988,-3.8992,-3.8997,-3.9009,-3.9074,-3.9124,-3.9065,-3.9067,-3.908,-3.9174,-3.9201,-3.921,-3.931,-3.9246,-3.9252,-3.9256,-3.9258,-3.947,-3.9472,0,0,0,0,0,0,-3.8835,-3.8856,-3.9009,-3.9016,-3.8918,-3.9002,-3.9016,-3.9051,-3.9124,-3.9133,-3.9082,-3.9081,-3.9191,-3.9202,-3.9214,-3.93,-3.9253,-3.9259,-3.9262,-3.9468,-3.947,-3.9472,0,0,0,0,0,0,-3.883,-3.8848,-3.9004,-3.8936,-3.8956,-3.9007,-3.9047,-3.9055,-3.9082,-3.9136,-3.9145,-3.91,-3.919,-3.9205,-3.9277,-3.9305,-3.9261,-3.9267,-3.9466,-3.9469,-3.9471,-3.9474,0,0,0,0,0,0,-3.8824,-3.8846,-3.8873,-3.8937,-3.896,-3.9064,-3.9049,-3.9058,-3.9093,-3.9093,-3.9156,-3.9165,-3.919,-3.9267,-3.9283,-3.9313,-3.9272,-3.9463,-3.9467,-3.947,-3.9472,-3.9477,-3.9481,0,0,0,0,0,-3.8817,-3.8869,-3.8875,-3.8893,-3.8995,-3.9066,-3.9079,-3.9108,-3.9095,-3.9122,-3.9158,-3.9163,-3.93,-3.9274,-3.9292,-3.9324,-3.9461,-3.9466,-3.947,-3.947,-3.9476,-3.9481,0,0,0,0,0,0,-3.8807,-3.8878,-3.8885,-3.896,-3.9007,-3.9069,-3.9104,-3.9113,-3.9165,-3.9162,-3.9195,-3.921,-3.9279,-3.9309,-3.9279,-3.9397,-3.938,-3.9388,-3.9373,-3.938,-3.9384,-3.9374,-3.9277,0,0,0,0,0,-3.8814,-3.8866,-3.8925,-3.8986,-3.9009,-3.9053,-3.9085,-3.9103,-3.9153,-3.9172,-3.9213,-3.9261,-3.9315,-3.935,-3.9402,-3.9478,-3.9491,-3.9509,-3.9513,-3.9517,-3.9523,-3.9564,-3.9572,-3.9486,-3.9486,-3.9486,0,0,-3.8828,-3.8873,-3.8904,-3.8985,-3.9024,-3.9076,-3.9069,-3.9125,-3.9164,-3.9181,-3.925,-3.9282,-3.9338,-3.9411,-3.9446,-3.9439,-3.955,-3.9523,-3.9525,-3.9529,-3.9569,-3.9577,-3.9585,-3.9489,-3.9489,-3.9488,0,0,-3.888,-3.892,-3.8975,-3.9014,-3.9073,-3.9102,-3.9115,-3.9177,-3.9198,-3.9269,-3.9282,-3.933,-3.9423,-3.9462,-3.9494,-3.9564,-3.957,-3.958,-3.9603,-3.9644,-3.965,-3.9657,-3.968,-3.9688,-3.9586,-3.9586,-3.9586,0,-3.889,-3.897,-3.9001,-3.9057,-3.9092,-3.9111,-3.9166,-3.9203,-3.9276,-3.93,-3.9292,-3.9409,-3.9448,-3.953,-3.9547,-3.9574,-3.9589,-3.9571,-3.9647,-3.9654,-3.966,-3.9682,-3.9691,-3.9587,-3.9587,-3.9587,-3.9587,0,-3.8978,-3.9034,-3.9071,-3.9141,-3.9181,-3.9236,-3.9276,-3.9313,-3.9329,-3.9359,-3.9431,-3.9479,-3.9541,-3.9563,-3.9579,-3.9649,-3.9642,-3.964,-3.9623,-3.9668,-3.969,-3.9699,-3.9588,-3.9588,-3.9588,-3.9587,0,0,-3.9024,-3.9113,-3.9126,-3.9158,-3.9226,-3.9269,-3.9326,-3.9388,-3.9418,-3.9469,-3.9517,-3.9596,-3.9595,-3.9631,-3.9652,-3.9688,-3.9739,-3.9682,-3.9684,-3.9689,-3.9817,-3.9816,-3.9826,-3.9745,-3.9747,-3.9748,-3.9812,0,-3.9082,-3.9183,-3.9214,-3.9299,-3.935,-3.9371,-3.942,-3.9467,-3.9497,-3.9546,-3.958,-3.9634,-3.963,-3.9652,-3.9688,-3.9725,-3.9764,-3.9721,-3.9788,-3.979,-3.977,-3.9837,-3.9836,-3.9894,-3.9821,-3.9822,-3.9823,0,-3.9163,-3.9215,-3.9305,-3.9366,-3.9389,-3.9433,-3.9492,-3.9539,-3.9593,-3.9613,-3.9655,-3.9673,-3.9733,-3.9716,-3.9799,-3.9768,-3.9798,-3.9821,-3.9824,-3.9829,-3.9807,-3.9841,-3.9913,-3.992,-3.9837,-3.9836,-3.9835,0,-3.9185,-3.9278,-3.9344,-3.9371,-3.9445,-3.9475,-3.9508,-3.956,-3.9596,-3.9649,-3.9672,-3.9731,-3.9763,-3.9809,-3.9842,-3.9827,-3.9922,-3.9908,-3.9939,-3.9938,-3.9955,-3.9953,-4.003,-3.998,-3.9979,-3.9979,-3.9979,0,-3.9245,-3.9298,-3.9354,-3.9394,-3.9455,-3.9492,-3.9551,-3.9584,-3.9632,-3.9678,-3.9701,-3.9744,-3.9788,-3.9837,-3.9865,-3.9929,-3.9944,-3.9961,-3.9966,-3.9957,-3.9954,-3.9975,-3.997,-3.9982,-3.9981,-3.9981,-3.998,0,-3.9278,-3.9318,-3.939,-3.9456,-3.9473,-3.9515,-3.9571,-3.961,-3.9643,-3.9702,-3.9718,-3.9769,-3.9829,-3.9868,-3.9944,-3.9963,-4.0032,-4.0038,-4.0013,-4.0015,-4.0044,-4.004,-4.0134,-4.0147,-4.009,-4.0091,-4.0091,0,-3.9312,-3.9354,-3.9423,-3.9457,-3.9489,-3.9542,-3.9579,-3.9618,-3.9655,-3.9721,-3.9752,-3.9814,-3.9864,-3.9959,-4.0002,-4.0061,-4.0068,-4.0097,-4.0076,-4.0065,-4.0065,-4.0061,-4.0065,-4.0099,-4.0099,-4.0099,-4.01,0,-3.9368,-3.9386,-3.9438,-3.9497,-3.954,-3.9589,-3.9638,-3.9664,-3.9711,-3.9752,-3.9813,-3.9853,-3.9931,-3.9991,-4.0054,-4.0088,-4.0101,-4.0107,-4.0117,-4.0105,-4.0088,-4.0096,-4.0019,-4.0103,-4.0103,-4.0103,-4.0102,-4.0102,-3.9401,-3.9439,-3.9494,-3.9551,-3.9592,-3.9638,-3.9678,-3.9716,-3.9768,-3.9835,-3.9855,-3.9919,-3.9973,-4.0059,-4.0094,-4.0145,-4.0142,-4.0157,-4.016,-4.0162,-4.0161,-4.0083,-4.0157,-4.0157,-4.0157,-4.0157,-4.0157,0,-3.9456,-3.9493,-3.9545,-3.9613,-3.9658,-3.9669,-3.9724,-3.9761,-3.9817,-3.9867,-3.9917,-3.9988,-4.0047,-4.0096,-4.0157,-4.0188,-4.0196,-4.0203,-4.0199,-4.0207,-4.0162,-4.0146,-4.0196,-4.0196,-4.0195,-4.0195,-4.0195,-4.0195,-3.9489,-3.9554,-3.9579,-3.9664,-3.9701,-3.9763,-3.9794,-3.9836,-3.9876,-3.9954,-4.0003,-4.0036,-4.0086,-4.0151,-4.0206,-4.0219,-4.0239,-4.0244,-4.0259,-4.0215,-4.021,-4.0206,-4.0191,-4.0249,-4.0249,-4.0299,-4.03,-4.03]},{"header":{"parameterUnit":"m.s-1","parameterCategory":1,"la1":30.2991,"la2":30.254,"lo1":-89.0895,"lo2":-89.0444,"dy":0.0017,"dx":0.0017,"nx":28,"ny":28,"refTime":"2024-04-16T03:00:00:Z","depth":0,"parameterNumber":3,"parameterNumberName":"V-component_of_WINDS"},"data":[0,0,0,0,0,0,0,0,0,0,0,0,0,0,0,0,0,0,0,0,0,0,0,0,0,0,0,0,0,0,0,0,0,0,0,0,0,0,0,0,0,0,0,0,0,0,0,0,0,0,0,0,0,0,0,0,0,0,3.8327,3.8327,0,3.8344,3.8344,3.8345,3.8342,3.8342,3.8342,3.8342,3.8357,3.8358,3.8359,0,0,0,0,0,0,0,0,0,0,0,0,0,3.829,3.8291,3.8327,3.8327,3.8327,3.8344,3.8344,3.8345,3.8342,3.8342,3.8342,3.8341,3.8357,3.8358,3.8359,0,0,0,0,0,0,0,0,0,0,0,0,0,3.8307,3.8291,3.8326,3.8328,3.8328,3.8344,3.8344,3.8345,3.8343,3.8342,3.8342,3.8341,3.8357,3.8358,3.8359,3.8373,0,0,3.8362,3.8362,0,0,0,0,0,0,0,0,3.8306,3.8308,3.8328,3.8328,3.8328,3.8341,3.8337,3.8354,3.8343,3.8337,3.8342,3.8341,3.8352,3.8353,3.8357,3.8374,3.8375,3.8362,3.8362,3.8363,3.8363,0,0,0,0,0,0,0,3.8305,3.8307,3.8333,3.8328,3.8328,3.8328,3.833,3.8341,3.8346,3.8338,3.8337,3.834,3.8352,3.8356,3.8358,3.8375,3.8362,3.8363,3.8363,3.8364,3.8406,3.8407,0,0,0,0,0,0,3.8303,3.8306,3.8333,3.8334,3.8316,3.8329,3.8331,3.8337,3.8346,3.8347,3.834,3.834,3.8355,3.8357,3.8358,3.8377,3.8363,3.8364,3.8364,3.8406,3.8407,3.8407,0,0,0,0,0,0,3.8303,3.8306,3.8332,3.832,3.8324,3.833,3.8337,3.8338,3.8342,3.8348,3.8349,3.8344,3.8355,3.8357,3.837,3.8378,3.8364,3.8365,3.8405,3.8406,3.8407,3.8414,0,0,0,0,0,0,3.8302,3.8305,3.8311,3.832,3.8324,3.8344,3.8337,3.8338,3.8344,3.8344,3.8352,3.8353,3.8355,3.8369,3.8371,3.8379,3.8366,3.8405,3.8406,3.8407,3.8413,3.8415,3.8417,0,0,0,0,0,3.83,3.8311,3.8311,3.8314,3.8331,3.8344,3.8346,3.8349,3.8345,3.8351,3.8355,3.8352,3.8377,3.837,3.8373,3.8381,3.8404,3.8405,3.8407,3.8413,3.8415,3.8417,0,0,0,0,0,0,3.8301,3.8313,3.8313,3.8327,3.8335,3.8344,3.8351,3.8351,3.8359,3.8358,3.8361,3.8362,3.8376,3.838,3.8372,3.8397,3.839,3.8392,3.8393,3.8396,3.8397,3.8396,3.8367,0,0,0,0,0,3.8303,3.8313,3.8323,3.8335,3.8339,3.8344,3.835,3.8352,3.8359,3.8362,3.8368,3.8375,3.8384,3.839,3.8399,3.8414,3.8416,3.8421,3.8423,3.8424,3.8426,3.8435,3.8438,3.8411,3.8411,3.8411,0,0,3.8307,3.8315,3.8321,3.8335,3.8341,3.8352,3.8347,3.8358,3.8365,3.8364,3.8377,3.8382,3.839,3.8405,3.8411,3.8408,3.8434,3.8426,3.8427,3.8427,3.8437,3.8439,3.8442,3.8412,3.8412,3.8412,0,0,3.832,3.8327,3.8338,3.8345,3.8355,3.8359,3.8362,3.8372,3.8375,3.8389,3.8389,3.8398,3.8414,3.842,3.8425,3.8444,3.8442,3.8446,3.8455,3.8464,3.8467,3.8468,3.8476,3.8478,3.8448,3.8448,3.8448,0,3.8323,3.8339,3.8344,3.8355,3.8362,3.8363,3.8375,3.8381,3.8393,3.8398,3.8395,3.8416,3.8421,3.8438,3.8443,3.8447,3.8451,3.8445,3.8466,3.8468,3.847,3.8477,3.8479,3.8448,3.8448,3.8448,3.8448,0,3.8343,3.8355,3.8363,3.8377,3.8384,3.8396,3.8402,3.8409,3.8411,3.8416,3.843,3.8438,3.8449,3.8453,3.8454,3.8471,3.8469,3.8466,3.8459,3.8473,3.8479,3.8482,3.8449,3.8449,3.8449,3.8449,0,0,3.8355,3.8373,3.8376,3.8383,3.8396,3.8404,3.8417,3.8429,3.8435,3.8444,3.8455,3.847,3.8468,3.8474,3.8476,3.8484,3.85,3.848,3.8481,3.8484,3.852,3.8522,3.8525,3.8499,3.85,3.85,3.8519,0,3.8369,3.8392,3.8397,3.8416,3.8428,3.843,3.8441,3.845,3.8455,3.8465,3.8471,3.8481,3.8478,3.8482,3.849,3.8496,3.8507,3.8495,3.8509,3.8509,3.8506,3.8528,3.8529,3.8547,3.8522,3.8522,3.8522,0,3.8388,3.84,3.842,3.8434,3.8439,3.8448,3.8461,3.8471,3.8481,3.8485,3.8493,3.8495,3.8508,3.8502,3.852,3.8512,3.8518,3.8522,3.8523,3.8524,3.8516,3.8529,3.8553,3.8555,3.8526,3.8526,3.8526,0,3.8396,3.8416,3.8432,3.8437,3.8453,3.846,3.8467,3.8477,3.8485,3.8496,3.8501,3.8513,3.852,3.8529,3.8534,3.8529,3.8553,3.8546,3.8556,3.8556,3.856,3.8559,3.8584,3.8564,3.8564,3.8564,3.8564,0,3.8411,3.8423,3.8435,3.8445,3.846,3.8466,3.848,3.8487,3.8497,3.8508,3.851,3.852,3.8527,3.8538,3.8542,3.8557,3.856,3.8563,3.8564,3.8563,3.8562,3.8566,3.8565,3.8565,3.8565,3.8564,3.8564,0,3.8421,3.8429,3.8446,3.8461,3.8465,3.8475,3.8487,3.8497,3.8503,3.8517,3.8521,3.853,3.8544,3.855,3.8566,3.8569,3.8587,3.8586,3.8583,3.8583,3.8593,3.8592,3.8621,3.8625,3.8602,3.8603,3.8603,0,3.8429,3.844,3.8456,3.8464,3.8472,3.8484,3.8493,3.85,3.8509,3.8524,3.8531,3.8545,3.8557,3.8578,3.8586,3.8599,3.86,3.8609,3.8601,3.8601,3.86,3.86,3.8601,3.861,3.861,3.8611,3.8611,0,3.8445,3.8449,3.8462,3.8477,3.8487,3.8499,3.851,3.8517,3.8526,3.8536,3.8551,3.856,3.8578,3.8592,3.8606,3.8612,3.8613,3.8613,3.8616,3.8615,3.8613,3.8615,3.8587,3.8612,3.8612,3.8612,3.8612,3.8612,3.8455,3.8465,3.8478,3.8493,3.8503,3.8514,3.8524,3.8533,3.8546,3.8561,3.8565,3.8581,3.8593,3.8612,3.8619,3.8632,3.8629,3.8634,3.8635,3.8635,3.8636,3.8612,3.8634,3.8634,3.8634,3.8634,3.8634,0,3.8471,3.848,3.8494,3.8511,3.8522,3.8524,3.8538,3.8547,3.8561,3.8573,3.8585,3.8603,3.8617,3.8627,3.8642,3.865,3.8651,3.8653,3.8653,3.8654,3.8637,3.8633,3.8652,3.8652,3.8652,3.8652,3.8652,3.8652,3.848,3.8497,3.8504,3.8527,3.8536,3.8552,3.856,3.8571,3.858,3.86,3.8613,3.862,3.8631,3.8647,3.866,3.8663,3.8668,3.8671,3.8674,3.8657,3.8655,3.8653,3.865,3.8672,3.8672,3.869,3.869,3.869]}]]